Orbital Elements at Epoch 2459200.5 (2020-Dec-17.0) TDB
Reference: JPL 21 (heliocentric ecliptic J2000)
Element | Value | Uncertainty (1-sigma) | Units |
e | .1650878089748883 | 3.1364e-08 | |
a | 2.227269919273524 | 7.3679e-09 | au |
q | 1.859574808304981 | 7.073e-08 | au |
i | 3.595449436793186 | 3.5958e-06 | deg |
node | 299.3644644506226 | 7.0991e-05 | deg |
peri | 351.0112129610114 | 7.2855e-05 | deg |
M | 111.2978820251861 | 1.861e-05 | deg |
tp | 2458825.145088034779 (2019-Dec-07.64508803) | 6.2216e-05 | TDB |
period | 1214.109072416139 3.32 | 6.0245e-06 1.649e-08 | d yr |
n | .2965137220197042 | 1.4713e-09 | deg/d |
Q | 2.594965030242066 | 8.5842e-09 | au |
|
| | Orbit Determination Parameters
Additional Information
|